SCP
0 0 0 0 0 0 0 0 0 0 0 0 0 0 0 0 0 0 1 1 1 2 4 5 4 3 2 2 2 3 3 4 3 2 1 1 0 0 0 0 0 1 1 0
0 0 0 0 0 0 0 0 0 0 0 0 0 0 0 0 0 0 1 1 1 1 3 5 4 3 2 2 2 2 3 3 3 2 2 1 1 0 0 0 0 1 1 0
0 0 0 0 0 0 0 0 0 0 0 0 0 0 0 0 0 0 1 1 1 1 2 5 5 3 2 1 1 1 2 2 3 3 2 2 1 1 0 0 1 1 1 0
0 0 0 0 0 0 0 0 0 0 0 0 0 0 0 0 0 0 0 0 1 1 2 4 5 3 2 1 1 1 1 1 2 2 2 2 1 1 1 1 1 1 0 0
0 0 0 0 0 0 0 0 0 0 0 0 0 0 0 0 0 0 0 0 0 1 2 4 5 3 2 1 1 1 1 1 1 2 2 2 2 1 1 1 1 1 0 0
0 0 0 0 0 0 0 0 0 0 0 0 0 0 0 0 0 0 0 0 0 1 3 4 4 3 2 1 1 1 1 1 1 1 2 2 2 1 1 1 1 1 1 0
0 0 0 0 0 0 0 0 0 0 0 0 0 0 0 0 0 0 0 0 0 1 3 4 3 2 2 2 1 1 1 1 1 1 2 2 2 2 2 1 1 1 1 1
0 0 0 0 0 0 0 0 0 0 0 0 0 0 0 0 0 0 0 0 1 2 2 3 2 2 2 2 2 1 1 1 1 1 1 2 3 2 2 2 1 1 1 1
0 0 0 0 0 0 0 0 0 0 0 0 0 0 0 0 0 0 0 0 1 1 1 2 2 2 1 2 1 1 1 1 1 1 1 2 3 3 2 2 2 1 1 1
0 0 0 0 0 0 0 0 0 0 0 0 0 0 0 0 0 0 0 0 1 1 1 1 2 2 2 2 1 1 1 1 1 1 1 2 3 3 3 3 2 1 1 1
0 0 0 0 0 0 0 0 0 0 0 0 0 0 0 0 0 0 0 0 0 1 1 1 2 2 2 1 1 1 1 1 1 1 1 1 2 3 3 3 2 2 1 1
0 0 0 0 0 0 0 0 0 0 0 0 0 0 0 0 0 0 0 0 1 1 1 1 1 1 1 1 1 1 1 1 1 1 1 1 2 2 3 3 2 2 1 1
0 0 0 0 0 0 0 0 0 0 0 0 0 0 0 0 0 0 0 0 1 1 1 1 1 1 1 1 1 1 1 1 1 1 1 1 1 1 1 2 2 1 1 1
0 0 0 0 0 0 0 0 0 0 0 0 0 0 0 0 0 0 0 0 1 1 1 0 0 1 1 1 1 0 1 1 1 1 1 1 1 1 1 1 1 1 1 1
0 0 0 0 0 0 0 0 0 0 0 0 0 0 0 0 0 0 0 0 0 1 1 0 0 0 1 1 1 0 0 0 1 1 1 1 1 1 1 1 1 1 1 1
0 0 0 0 0 0 0 0 0 0 0 0 0 0 0 0 0 0 0 0 0 0 0 0 0 0 1 1 1 0 0 0 1 1 1 1 1 1 1 1 1 1 1 1
0 0 0 0 0 0 0 0 0 0 0 0 0 0 0 0 0 0 0 0 0 0 0 0 0 0 0 1 1 1 0 0 0 1 1 1 2 2 1 1 1 0 0 0
0 0 0 0 0 0 0 0 0 0 0 0 0 0 0 0 0 0 0 0 0 0 0 0 0 0 1 1 1 1 1 0 0 0 1 1 1 1 1 1 1 0 0 0
0 0 0 0 0 0 0 0 0 0 0 0 0 0 0 0 0 0 0 0 0 0 0 0 0 0 0 1 1 1 1 1 0 0 0 1 1 1 1 1 1 1 0 0
0 0 0 0 0 0 0 0 0 0 0 0 0 0 0 0 0 0 0 0 0 0 0 0 0 0 0 1 1 1 1 1 1 0 0 0 1 1 1 1 1 1 0 0
0 0 0 0 0 0 0 0 0 0 0 0 0 0 0 0 0 0 0 0 0 0 0 0 0 0 0 0 1 1 1 1 1 0 0 0 1 1 1 1 1 1 0 0
0 0 0 0 0 0 0 0 0 0 0 0 0 0 0 0 0 0 0 0 0 0 0 0 0 0 0 0 1 1 1 1 1 1 0 0 0 1 1 1 1 1 1 0
0 0 0 0 0 0 0 0 0 0 0 0 0 0 0 0 0 0 0 0 0 0 0 0 0 0 0 0 0 1 1 1 1 1 0 0 0 0 1 1 1 1 1 1
0 0 0 0 0 0 0 0 0 0 0 0 0 0 0 0 0 0 0 0 0 0 0 0 0 0 0 0 0 0 0 1 1 0 0 0 0 0 0 1 1 1 1 1
0 0 0 0 0 0 0 0 0 0 0 0 0 0 0 0 0 0 0 0 0 0 0 0 0 0 0 0 0 0 0 0 0 0 0 0 0 0 0 1 1 1 1 1
0 0 0 0 0 0 0 0 0 0 0 0 0 0 0 0 0 0 0 0 0 0 0 0 0 0 0 0 0 0 0 0 0 0 0 0 0 0 0 0 0 0 1 1
Wind_Speed
0 3 3 6 6 5 4 3 4 6 5 3 5 7 8 7 6 7 7 7 8 9 8 7 8 8 8 8 8 8 8 6 6 4 4 3 2 1 1 1 2 3 3 3
3 3 7 5 3 3 3 3 4 5 4 3 5 7 7 5 7 8 10 9 9 6 5 6 7 8 9 9 8 8 9 8 7 5 4 3 3 2 2 1 2 2 3 3
5 6 4 3 2 2 4 5 5 4 3 2 1 5 4 4 3 5 7 7 8 9 10 9 8 8 8 9 9 9 9 8 7 6 4 3 2 2 1 1 1 1 2 3
3 5 2 1 3 3 4 5 5 3 1 3 2 3 6 4 3 4 5 5 7 7 8 8 8 8 9 9 9 8 8 8 7 7 7 7 5 3 3 3 2 2 2 3
4 3 2 3 6 5 6 5 3 3 2 3 2 2 6 2 2 3 3 4 5 5 7 9 9 9 9 8 8 8 8 7 7 7 8 8 5 3 2 2 3 2 2 2
5 4 3 5 5 4 2 1 3 4 3 3 5 4 5 3 5 3 2 2 4 5 5 6 6 6 6 6 7 7 7 6 6 7 7 8 7 5 5 4 3 3 1 1
5 5 3 1 1 3 3 4 3 4 3 5 3 2 5 5 3 4 4 2 2 2 3 4 4 4 5 5 6 7 7 6 6 6 7 8 8 8 8 6 5 4 2 2
1 5 4 2 3 3 2 6 6 3 4 5 2 2 4 3 2 3 4 3 3 3 3 3 4 4 4 5 6 6 7 7 7 6 6 6 7 6 5 6 5 5 4 4
3 5 4 3 2 5 2 2 5 5 2 2 3 2 3 2 3 3 3 4 3 3 3 3 3 3 3 4 4 5 6 6 6 6 6 5 6 6 6 5 5 4 4 4
3 3 5 4 2 1 4 4 3 3 2 2 3 2 3 2 1 0 2 2 2 2 2 3 3 3 3 3 3 4 5 5 5 5 5 5 6 6 5 5 5 5 5 4
2 2 4 3 2 4 0 1 3 2 3 4 3 5 5 6 5 3 2 3 3 3 3 3 2 2 2 3 3 3 3 3 3 3 4 4 4 4 5 5 5 5 4 4
1 3 2 5 5 3 3 3 4 3 3 3 3 6 5 4 3 3 2 3 3 4 3 3 3 3 3 2 2 2 2 3 3 3 3 3 3 3 4 4 5 5 5 5
2 4 2 6 6 4 1 1 3 4 3 3 3 6 3 1 1 1 2 1 2 2 2 2 2 2 2 2 2 1 2 3 3 3 3 3 2 3 3 4 4 5 5 5
3 3 5 6 6 3 4 4 2 3 3 3 5 5 4 2 0 0 1 1 2 2 2 2 2 2 2 2 2 2 2 2 3 3 3 3 3 3 4 3 3 4 4 5
4 2 3 6 6 4 5 6 4 3 5 6 6 5 5 4 3 2 1 1 2 2 1 2 2 2 2 2 2 2 2 2 3 3 3 4 3 3 3 2 2 3 4 4
2 2 1 4 5 4 5 6 5 4 3 4 3 4 4 2 1 1 0 1 1 1 2 3 3 3 3 3 3 2 2 2 2 3 4 4 3 3 2 2 3 3 3 3
1 2 0 4 5 3 4 4 2 1 0 3 5 5 1 0 1 2 2 1 1 2 2 2 3 4 4 3 3 3 3 2 2 3 4 4 4 4 4 3 3 3 3 3
4 3 2 1 2 4 5 2 1 2 0 1 1 1 2 3 4 2 2 2 2 2 2 3 3 3 3 3 2 2 1 2 2 3 4 4 4 4 3 3 3 3 3 3
5 6 3 2 2 5 4 2 1 2 2 1 1 0 1 0 2 3 2 1 2 3 3 3 3 3 3 3 3 2 1 1 1 2 3 4 4 4 3 3 3 3 2 2
2 4 4 3 3 5 5 3 2 2 2 3 1 2 0 2 1 4 4 2 2 2 2 2 2 1 1 2 2 3 2 2 3 3 3 3 4 4 4 4 3 2 3 3
1 1 3 3 4 6 5 3 2 2 6 2 2 2 1 2 5 4 3 2 1 1 2 1 0 1 2 2 2 2 2 3 4 3 2 2 3 4 4 3 3 2 2 2
4 3 4 3 3 7 4 1 3 5 2 1 1 2 1 1 2 1 1 1 1 1 2 1 1 1 2 1 2 2 2 3 2 1 1 2 3 3 3 3 2 2 2 2
4 6 5 7 7 5 2 3 3 3 2 2 2 2 2 1 1 2 1 1 1 1 1 1 0 1 2 1 1 2 3 2 1 1 1 2 2 2 3 3 3 2 2 2
3 1 2 2 4 4 3 2 2 2 3 2 2 2 2 2 2 2 2 2 2 2 2 1 1 1 3 2 1 2 2 1 0 1 1 1 2 2 2 2 3 3 3 2
5 1 1 3 4 3 3 3 2 1 1 0 0 1 3 3 2 2 2 2 2 2 1 1 1 2 3 2 2 2 1 1 1 1 1 1 1 2 2 1 2 3 4 4
5 5 5 7 7 5 6 5 3 2 2 2 1 1 1 2 3 2 2 2 2 2 1 1 1 2 3 3 2 2 1 0 1 1 1 1 1 1 2 1 0 1 1 2
Wind_Direction
19 93 208 216 198 193 196 206 241 252 243 212 235 246 248 223 200 199 197 195 198 206 206 189 177 168 162 163 162 163 159 161 151 147 144 136 146 143 120 137 143 141 140 139
32 251 233 217 201 188 204 233 258 277 257 212 243 260 256 225 203 197 192 195 200 206 196 188 179 171 167 168 171 171 169 167 166 167 164 159 156 158 155 148 140 141 139 143
200 242 235 211 242 233 243 219 230 249 305 325 294 307 293 280 212 203 201 194 196 192 191 191 184 180 169 173 179 176 177 172 170 162 139 119 92 76 80 103 156 171 155 147
244 251 228 191 238 212 248 238 227 236 294 278 184 264 281 260 251 225 218 204 204 201 191 187 182 181 179 183 181 177 175 173 171 160 155 155 156 168 192 187 188 191 173 159
255 236 211 228 235 212 230 244 236 236 215 280 276 194 278 281 237 246 230 204 198 196 187 185 185 185 183 178 174 176 173 174 172 168 167 165 165 178 174 164 174 190 197 182
247 253 210 222 241 221 221 11 11 46 77 268 246 186 267 248 213 217 217 186 180 182 179 182 184 179 178 175 171 168 168 175 175 172 171 173 171 169 163 172 183 194 200 200
305 293 272 218 311 328 75 80 24 354 0 257 258 176 250 253 202 173 175 183 163 146 151 152 155 169 175 171 169 165 162 170 175 174 179 182 180 176 178 182 187 184 186 199
259 288 276 237 188 207 194 144 159 205 234 278 317 218 260 251 161 135 133 127 111 103 113 132 154 160 167 170 167 165 168 171 177 180 189 189 184 183 188 189 187 189 194 199
192 261 283 265 210 161 164 186 178 160 224 260 274 281 321 14 54 74 89 92 108 122 128 128 129 136 144 154 163 165 170 173 179 184 187 190 190 189 190 191 189 192 194 193
167 251 281 285 345 316 160 158 95 120 176 257 282 262 233 248 245 92 98 122 139 138 136 129 129 129 133 141 143 150 160 170 178 184 187 187 192 192 187 184 192 197 196 191
91 186 295 331 230 238 58 96 106 134 168 173 239 266 234 202 200 176 166 169 158 151 151 144 139 139 117 98 108 133 148 146 160 178 183 182 188 186 181 186 197 199 194 188
53 124 262 269 270 224 178 176 146 161 242 185 188 263 283 197 188 158 162 183 165 156 160 154 134 107 100 106 111 127 153 159 173 174 170 174 176 178 187 199 200 197 193 194
84 92 12 332 332 353 10 224 167 154 145 177 187 256 313 43 101 132 134 157 136 129 133 127 120 132 146 146 150 173 183 188 181 164 159 162 165 174 195 208 204 195 190 191
110 124 175 214 239 260 280 280 246 149 174 220 221 236 287 303 141 75 111 139 124 129 141 151 163 179 183 183 185 191 206 201 183 165 163 173 188 194 202 203 195 194 192 194
91 161 229 249 259 248 250 264 261 214 196 200 228 225 241 238 226 221 202 134 112 124 160 185 197 210 201 199 212 212 208 197 184 176 183 200 201 196 192 193 203 201 196 200
68 168 264 288 288 273 265 266 254 242 215 207 212 245 259 254 130 116 139 113 109 179 201 213 214 216 218 213 211 218 223 211 188 191 202 204 194 190 187 193 202 203 206 206
168 155 142 278 297 325 278 261 218 189 221 183 205 231 245 49 208 199 189 185 238 246 229 219 218 220 226 226 212 209 218 219 202 207 210 203 197 197 201 198 189 198 210 208
175 152 152 247 358 241 245 301 139 142 91 129 155 222 216 215 228 209 188 193 232 258 263 248 231 218 223 219 211 213 196 193 204 211 211 206 202 201 198 189 192 203 206 206
178 153 148 151 228 270 287 310 172 175 267 306 131 141 304 102 28 334 304 266 240 248 249 242 235 220 209 202 192 169 185 197 199 219 221 210 198 194 191 194 198 200 194 204
121 126 138 155 197 240 247 263 260 124 251 285 135 145 232 66 35 275 296 308 318 314 296 266 258 246 218 224 183 159 192 199 225 235 233 220 199 192 196 204 201 193 190 204
104 99 166 184 221 257 260 290 62 166 240 258 161 152 142 191 219 241 278 298 315 318 305 301 297 269 253 227 164 171 201 230 237 236 229 216 206 202 201 199 192 186 189 193
178 179 195 172 209 252 272 64 169 216 244 210 182 180 180 244 270 272 286 301 333 343 333 328 5 313 301 219 156 171 231 250 250 228 225 226 217 209 196 188 191 186 177 184
197 197 192 191 213 240 241 202 213 183 189 219 200 224 190 209 266 271 274 278 292 306 305 317 323 324 323 304 191 200 249 256 248 230 234 231 225 213 192 185 185 182 178 184
271 169 145 244 261 260 256 228 244 211 195 220 213 211 200 224 228 243 263 278 293 289 267 284 335 322 308 307 299 251 257 246 220 251 261 243 208 209 201 187 180 181 189 195
234 187 193 253 264 285 279 253 226 223 204 199 251 224 193 188 235 233 246 262 274 280 276 264 253 272 289 302 310 304 297 185 177 252 268 254 211 194 204 202 202 203 211 201
220 194 195 231 231 216 245 248 224 202 221 212 186 249 240 201 209 233 253 262 262 261 260 251 268 281 293 298 297 312 328 206 175 241 253 238 217 202 191 180 339 332 257 242